Weather History for Elizabeth City, NC

Change the Weather History Date:

Friday, January 3, 2014

  Actual Average Record
Temperature  
Mean Temperature 35 °F 41 °F  
Max Temperature 45 °F 51 °F 75 °F (1966)
Min Temperature 24 °F 32 °F 15 °F (2001)
Degree Days  
Heating Degree Days 30 24  
Month to date heating degree days 71 72  
Since 1 July heating degree days 1190 1227  
Cooling Degree Days 0 0  
Month to date cooling degree days 0 0  
Year to date cooling degree days 0 0  
Moisture  
Dew Point 20 °F    
Average Humidity 64    
Maximum Humidity 92    
Minimum Humidity 36    
Precipitation  
Precipitation T in 0.10 in 3.34 in (1936)
Month to date precipitation 0.43 0.29  
Year to date precipitation 0.43 0.29  
Snow  
Snow T in - 5.50 in (2002)
Month to date snowfall T  
Since 1 July snowfall T  
Snow Depth 0.00 in    
Sea Level Pressure  
Sea Level Pressure 30.06 in    
Wind  
Wind Speed 20 mph (NW)    
Max Wind Speed 37 mph    
Max Gust Speed 52 mph    
Visibility 10 miles    
Events Rain , Snow    
T = Trace of Precipitation, MM = Missing Value Source: NWS Daily Summary

Daily Weather History Graph

Daily Weather History Graph

Search for Another Location

Airport:

Trip Planner

Search our weather history database for the weather conditions in past years. The results will help you decide how hot, cold, wet, or windy it might be!

Date:

Astronomy

Jan. 03, 2014 Rise Set
Actual Time 7:16 AM EST 5:02 PM EST
Civil Twilight 6:47 AM EST 5:30 PM EST
Nautical Twilight 6:15 AM EST 6:02 PM EST
Astronomical Twilight 5:44 AM EST 6:34 PM EST
Moon 8:45 AM EST (1/3) 8:03 PM EST (1/3)
Length of Visible Light 10h 43m
Length of Day
9h 46m
Waxing Crescent, 8% of the Moon is Illuminated
Jan 3
Waxing Crescent
Jan 7
First Quarter
Jan 15
Full
Jan 24
Last Quarter
Jan 30
New

Hourly Weather History & Observations

Time (EST) Temp. Windchill Dew Point Humidity Pressure Visibility Wind Dir Wind Speed Gust Speed Precip Events Conditions
12:54 AM 45.0 °F 38.5 °F 43.0 °F 93% 29.54 in 10.0 mi WNW 13.8 mph - N/A   Overcast
1:22 AM 44.1 °F 36.5 °F 41.0 °F 89% 29.57 in 10.0 mi WNW 17.3 mph 28.8 mph 0.00 in Rain Light Rain
1:51 AM 42.8 °F 34.5 °F 39.2 °F 87% 29.57 in 10.0 mi WNW 18.4 mph 29.9 mph 0.00 in   Overcast
1:54 AM 43.0 °F 33.5 °F 39.9 °F 89% 29.58 in 10.0 mi WNW 24.2 mph 32.2 mph 0.00 in   Overcast
2:42 AM 42.1 °F 32.6 °F 37.0 °F 82% 29.63 in 10.0 mi WNW 23.0 mph 33.4 mph 0.00 in   Overcast
2:54 AM 41.0 °F 31.9 °F 36.0 °F 82% 29.64 in 10.0 mi WNW 19.6 mph 26.5 mph 0.00 in   Overcast
3:54 AM 39.0 °F 28.5 °F 33.1 °F 79% 29.69 in 10.0 mi NW 23.0 mph 34.5 mph N/A   Overcast
4:52 AM 37.4 °F 27.8 °F 30.2 °F 75% 29.76 in 10.0 mi NW 17.3 mph 28.8 mph N/A   Overcast
4:54 AM 37.0 °F 26.4 °F 30.0 °F 76% 29.76 in 10.0 mi NW 20.7 mph 26.5 mph N/A   Overcast
5:54 AM 36.0 °F 23.7 °F 28.0 °F 73% 29.82 in 8.0 mi NNW 26.5 mph 33.4 mph 0.00 in Snow Light Snow
6:54 AM 33.1 °F 18.7 °F 25.0 °F 72% 29.90 in 10.0 mi NNW 32.2 mph 41.4 mph 0.00 in   Overcast
7:28 AM 32.0 °F 17.2 °F 19.0 °F 59% 29.96 in 10.0 mi NNW 32.2 mph 51.8 mph N/A   Overcast
7:54 AM 30.0 °F 14.2 °F 17.1 °F 59% 30.01 in 10.0 mi NNW 33.4 mph 40.3 mph N/A   Overcast
8:54 AM 30.0 °F 15.2 °F 15.1 °F 54% 30.09 in 10.0 mi NNW 28.8 mph 36.8 mph N/A   Clear
9:54 AM 28.9 °F 16.1 °F 12.9 °F 51% 30.13 in 10.0 mi NNW 19.6 mph 32.2 mph N/A   Clear
10:54 AM 28.9 °F 13.7 °F 12.9 °F 51% 30.17 in 10.0 mi NW 28.8 mph 36.8 mph N/A   Clear
11:54 AM 30.0 °F 16.0 °F 12.0 °F 47% 30.19 in 10.0 mi NNW 25.3 mph 39.1 mph N/A   Clear
12:54 PM 30.9 °F 17.2 °F 12.0 °F 46% 30.22 in 10.0 mi NNW 25.3 mph 34.5 mph N/A   Clear
1:54 PM 32.0 °F 20.1 °F 12.0 °F 44% 30.26 in 10.0 mi NW 19.6 mph 26.5 mph N/A   Clear
2:54 PM 32.0 °F 21.6 °F 10.0 °F 40% 30.30 in 10.0 mi NNW 15.0 mph - N/A   Clear
3:54 PM 30.9 °F 18.7 °F 7.0 °F 37% 30.33 in 10.0 mi NW 19.6 mph 27.6 mph N/A   Clear
4:54 PM 28.9 °F 16.9 °F 8.1 °F 41% 30.35 in 10.0 mi NNW 17.3 mph - N/A   Clear
5:54 PM 28.0 °F 15.7 °F 8.1 °F 43% 30.38 in 10.0 mi NNW 17.3 mph - N/A   Clear
6:54 PM 28.0 °F 17.0 °F 8.1 °F 43% 30.42 in 10.0 mi NNW 13.8 mph 24.2 mph N/A   Clear
7:54 PM 27.0 °F 18.0 °F 9.0 °F 47% 30.45 in 10.0 mi North 9.2 mph - N/A   Clear
8:54 PM 26.1 °F 14.5 °F 8.1 °F 47% 30.48 in 10.0 mi North 13.8 mph - N/A   Clear
9:54 PM 26.1 °F 14.5 °F 8.1 °F 47% 30.50 in 10.0 mi North 13.8 mph - N/A   Clear
10:54 PM 25.0 °F 14.2 °F 8.1 °F 49% 30.50 in 10.0 mi North 11.5 mph - N/A   Clear
11:54 PM 24.1 °F 13.7 °F 9.0 °F 53% 30.49 in 10.0 mi NNW 10.4 mph - N/A   Clear